[[{"header":{"parameterUnit":"m.s-1","parameterCategory":1,"la1":30.2991,"la2":30.254,"lo1":-89.0895,"lo2":-89.0444,"dy":0.0017,"dx":0.0017,"nx":28,"ny":28,"refTime":"2024-04-07T21:00:00:Z","depth":0,"parameterNumber":2,"parameterNumberName":"U-component_of_WINDS"},"data":[0,0,0,0,0,0,0,0,0,0,0,0,0,0,0,0,0,0,0,0,0,0,0,0,0,0,0,0,0,0,0,0,0,0,0,0,0,0,0,0,0,0,0,0,0,0,0,0,0,0,0,0,0,0,0,0,0,0,-3.2908,-3.291,0,-3.3086,-3.3088,-3.309,-3.315,-3.3149,-3.3149,-3.3148,-3.3332,-3.3337,-3.3343,0,0,0,0,0,0,0,0,0,0,0,0,0,-3.2624,-3.2628,-3.2908,-3.291,-3.2912,-3.3086,-3.3088,-3.3091,-3.315,-3.3149,-3.3148,-3.3147,-3.333,-3.3337,-3.3343,0,0,0,0,0,0,0,0,0,0,0,0,0,-3.2769,-3.263,-3.2908,-3.2963,-3.297,-3.3085,-3.3088,-3.3091,-3.315,-3.3149,-3.3148,-3.3147,-3.3328,-3.3336,-3.3344,-3.3418,0,0,-3.337,-3.3373,0,0,0,0,0,0,0,0,-3.2761,-3.2779,-3.2953,-3.2959,-3.2967,-3.3095,-3.3055,-3.3201,-3.3151,-3.3082,-3.3148,-3.3147,-3.3254,-3.3268,-3.3304,-3.3427,-3.3435,-3.3371,-3.3376,-3.3379,-3.3382,0,0,0,0,0,0,0,-3.275,-3.2772,-3.2978,-3.2955,-3.2964,-3.298,-3.3,-3.3083,-3.3172,-3.3088,-3.3092,-3.3113,-3.3258,-3.3296,-3.3309,-3.3437,-3.337,-3.3378,-3.3383,-3.3386,-3.3632,-3.3633,0,0,0,0,0,0,-3.2731,-3.2763,-3.2973,-3.2984,-3.2859,-3.2986,-3.3008,-3.3055,-3.3171,-3.3188,-3.3113,-3.3115,-3.3282,-3.3299,-3.3316,-3.341,-3.3379,-3.3387,-3.3392,-3.363,-3.3632,-3.3634,0,0,0,0,0,0,-3.2724,-3.2749,-3.2966,-3.2875,-3.2904,-3.2992,-3.3045,-3.3059,-3.3097,-3.3191,-3.3207,-3.3136,-3.3282,-3.3304,-3.3393,-3.3417,-3.3391,-3.3398,-3.3628,-3.3631,-3.3633,-3.3599,0,0,0,0,0,0,-3.2716,-3.2746,-3.2774,-3.2875,-3.2908,-3.3038,-3.3046,-3.3063,-3.3111,-3.3115,-3.3216,-3.3232,-3.3283,-3.338,-3.3401,-3.3428,-3.3405,-3.3627,-3.3629,-3.3632,-3.3598,-3.36,-3.3601,0,0,0,0,0,-3.2705,-3.2757,-3.2775,-3.28,-3.2945,-3.3039,-3.3059,-3.3116,-3.3113,-3.3142,-3.3203,-3.3229,-3.3412,-3.3388,-3.3413,-3.3443,-3.3625,-3.3629,-3.3632,-3.3598,-3.36,-3.3601,0,0,0,0,0,0,-3.2657,-3.2772,-3.2792,-3.2878,-3.2949,-3.3049,-3.3088,-3.3116,-3.3189,-3.3189,-3.3258,-3.328,-3.3363,-3.3413,-3.3384,-3.3522,-3.352,-3.3528,-3.3486,-3.3488,-3.349,-3.3475,-3.3412,0,0,0,0,0,-3.2656,-3.2722,-3.282,-3.2886,-3.2921,-3.2998,-3.3041,-3.308,-3.3155,-3.3186,-3.3252,-3.3326,-3.34,-3.3448,-3.3521,-3.3607,-3.363,-3.364,-3.3642,-3.3642,-3.3648,-3.3698,-3.3704,-3.3645,-3.3645,-3.3644,0,0,-3.2655,-3.2726,-3.2764,-3.2878,-3.2937,-3.3005,-3.3023,-3.3094,-3.3145,-3.3197,-3.3284,-3.3336,-3.3423,-3.351,-3.3552,-3.3554,-3.367,-3.3647,-3.3647,-3.3652,-3.3702,-3.3708,-3.3713,-3.3647,-3.3646,-3.3646,0,0,-3.2688,-3.2749,-3.2811,-3.287,-3.2959,-3.3011,-3.3026,-3.3123,-3.3159,-3.3248,-3.3289,-3.3352,-3.3479,-3.3539,-3.3586,-3.3645,-3.3671,-3.3667,-3.3674,-3.3722,-3.3727,-3.3731,-3.3752,-3.3758,-3.3673,-3.3673,-3.3673,0,-3.2676,-3.2779,-3.284,-3.2909,-3.2958,-3.3009,-3.3073,-3.3128,-3.3237,-3.327,-3.3271,-3.3432,-3.3494,-3.3596,-3.3611,-3.3648,-3.3668,-3.3655,-3.3721,-3.3726,-3.3731,-3.3752,-3.3759,-3.3672,-3.3672,-3.3672,-3.3672,0,-3.2759,-3.283,-3.287,-3.2973,-3.3028,-3.3095,-3.3167,-3.3215,-3.325,-3.3302,-3.3393,-3.347,-3.356,-3.3588,-3.3622,-3.3696,-3.3694,-3.3707,-3.3706,-3.3734,-3.3755,-3.3763,-3.367,-3.3671,-3.3671,-3.3671,0,0,-3.2764,-3.2901,-3.2915,-3.2963,-3.3066,-3.3123,-3.3193,-3.3281,-3.3321,-3.3396,-3.3456,-3.3563,-3.3576,-3.363,-3.3672,-3.3715,-3.3756,-3.3723,-3.3726,-3.3725,-3.3843,-3.3831,-3.3839,-3.3776,-3.3778,-3.3779,-3.3836,0,-3.2809,-3.2934,-3.2992,-3.3092,-3.3158,-3.3209,-3.327,-3.3341,-3.3392,-3.3458,-3.3516,-3.359,-3.3602,-3.3635,-3.3679,-3.3741,-3.3781,-3.3739,-3.3833,-3.3836,-3.3807,-3.385,-3.3838,-3.3887,-3.3844,-3.3845,-3.3846,0,-3.2878,-3.2951,-3.3057,-3.3154,-3.3184,-3.3238,-3.3324,-3.3386,-3.3468,-3.3503,-3.3564,-3.3605,-3.3682,-3.3678,-3.3786,-3.3756,-3.3799,-3.3836,-3.3839,-3.3848,-3.3841,-3.3859,-3.3904,-3.3911,-3.386,-3.3859,-3.3858,0,-3.2869,-3.2995,-3.3075,-3.3115,-3.323,-3.3266,-3.3316,-3.3397,-3.3447,-3.3524,-3.3557,-3.3641,-3.3687,-3.3753,-3.3816,-3.3807,-3.3918,-3.3919,-3.3949,-3.3947,-3.3968,-3.3965,-3.4018,-3.3998,-3.3998,-3.3998,-3.3998,0,-3.2912,-3.2975,-3.3073,-3.3121,-3.3194,-3.3262,-3.3332,-3.3386,-3.3458,-3.352,-3.357,-3.3627,-3.3708,-3.3776,-3.3827,-3.3908,-3.3929,-3.396,-3.3972,-3.3954,-3.395,-3.3981,-3.3979,-3.4,-3.3999,-3.3999,-3.3999,0,-3.2913,-3.2982,-3.3072,-3.3174,-3.3201,-3.325,-3.3338,-3.3388,-3.3443,-3.3521,-3.3543,-3.3629,-3.3712,-3.3783,-3.3892,-3.3926,-3.401,-3.4026,-3.3981,-3.3987,-3.4013,-3.4009,-3.4087,-3.4101,-3.4072,-3.4072,-3.4072,0,-3.2936,-3.2985,-3.3092,-3.3136,-3.3185,-3.3256,-3.3307,-3.3377,-3.3428,-3.3527,-3.3566,-3.3652,-3.3724,-3.3855,-3.3928,-3.4012,-3.403,-3.4051,-3.4042,-3.4023,-3.4029,-3.4024,-3.403,-3.4051,-3.405,-3.405,-3.405,0,-3.2968,-3.2999,-3.307,-3.3153,-3.3213,-3.3282,-3.3353,-3.3387,-3.347,-3.3526,-3.3611,-3.3667,-3.3779,-3.3864,-3.3956,-3.401,-3.4044,-3.4053,-3.4064,-3.4045,-3.4017,-3.4032,-3.3981,-3.405,-3.405,-3.405,-3.405,-3.405,-3.298,-3.3026,-3.3109,-3.3187,-3.3247,-3.3313,-3.3365,-3.3427,-3.3498,-3.3594,-3.3632,-3.3718,-3.3802,-3.393,-3.3983,-3.4053,-3.4058,-3.4075,-3.4079,-3.4081,-3.4078,-3.4008,-3.4071,-3.4071,-3.4071,-3.4071,-3.4071,0,-3.3013,-3.3069,-3.314,-3.3238,-3.3299,-3.3327,-3.3408,-3.3458,-3.3533,-3.3607,-3.3678,-3.3776,-3.3859,-3.394,-3.4028,-3.4069,-3.4087,-3.409,-3.4086,-3.4098,-3.4069,-3.405,-3.4073,-3.4073,-3.4073,-3.4073,-3.4073,-3.4073,-3.3038,-3.3118,-3.3159,-3.3271,-3.3328,-3.3411,-3.3455,-3.3516,-3.3576,-3.3683,-3.3752,-3.3805,-3.3883,-3.3977,-3.4056,-3.4078,-3.4107,-3.4105,-3.4131,-3.4101,-3.41,-3.4099,-3.4081,-3.4111,-3.4111,-3.4155,-3.4155,-3.4155]},{"header":{"parameterUnit":"m.s-1","parameterCategory":1,"la1":30.2991,"la2":30.254,"lo1":-89.0895,"lo2":-89.0444,"dy":0.0017,"dx":0.0017,"nx":28,"ny":28,"refTime":"2024-04-07T21:00:00:Z","depth":0,"parameterNumber":3,"parameterNumberName":"V-component_of_WINDS"},"data":[0,0,0,0,0,0,0,0,0,0,0,0,0,0,0,0,0,0,0,0,0,0,0,0,0,0,0,0,0,0,0,0,0,0,0,0,0,0,0,0,0,0,0,0,0,0,0,0,0,0,0,0,0,0,0,0,0,0,3.9096,3.9096,0,3.9077,3.9077,3.9077,3.9061,3.9061,3.9061,3.9061,3.9039,3.9039,3.9038,0,0,0,0,0,0,0,0,0,0,0,0,0,3.9118,3.9118,3.9096,3.9096,3.9096,3.9077,3.9077,3.9077,3.9061,3.9061,3.9061,3.9061,3.9039,3.9039,3.9038,0,0,0,0,0,0,0,0,0,0,0,0,0,3.9105,3.9118,3.9096,3.9086,3.9085,3.9077,3.9077,3.9077,3.9061,3.9061,3.9061,3.9061,3.9039,3.9039,3.9038,3.9039,0,0,3.9036,3.9036,0,0,0,0,0,0,0,0,3.9106,3.9104,3.9088,3.9087,3.9085,3.9072,3.9077,3.9064,3.9061,3.907,3.9061,3.9061,3.905,3.9048,3.9045,3.9038,3.9037,3.9036,3.9035,3.9035,3.9035,0,0,0,0,0,0,0,3.9106,3.9105,3.9089,3.9088,3.9086,3.9082,3.908,3.9074,3.9061,3.9069,3.9068,3.9066,3.9049,3.9046,3.9044,3.9036,3.9036,3.9035,3.9035,3.9035,3.9029,3.9029,0,0,0,0,0,0,3.9109,3.9106,3.9089,3.9088,3.9095,3.9082,3.9079,3.9076,3.9061,3.9059,3.9067,3.9066,3.9047,3.9045,3.9044,3.9044,3.9035,3.9035,3.9034,3.9029,3.9029,3.9029,0,0,0,0,0,0,3.911,3.9108,3.909,3.9097,3.9094,3.9082,3.9078,3.9076,3.9073,3.9059,3.9057,3.9066,3.9047,3.9045,3.904,3.9043,3.9034,3.9034,3.9029,3.9029,3.9029,3.9044,0,0,0,0,0,0,3.911,3.9108,3.9108,3.9097,3.9094,3.9087,3.9078,3.9076,3.9072,3.907,3.9058,3.9055,3.9046,3.9041,3.904,3.9042,3.9033,3.9028,3.9029,3.9029,3.9043,3.9045,3.9046,0,0,0,0,0,3.9111,3.9113,3.9109,3.9107,3.9094,3.9088,3.9086,3.9076,3.9072,3.9072,3.9064,3.9056,3.9043,3.9041,3.9039,3.9041,3.9028,3.9029,3.9029,3.9042,3.9044,3.9046,0,0,0,0,0,0,3.9124,3.9111,3.9106,3.9104,3.9097,3.9085,3.9085,3.9078,3.9072,3.9071,3.9058,3.9056,3.9053,3.9047,3.9045,3.9041,3.9035,3.9035,3.9045,3.9047,3.9049,3.905,3.9033,0,0,0,0,0,3.9127,3.9123,3.9112,3.9111,3.9108,3.9097,3.9094,3.9087,3.9079,3.9076,3.9067,3.906,3.9054,3.905,3.9044,3.9043,3.904,3.9043,3.9044,3.9046,3.9046,3.9045,3.9046,3.9031,3.9031,3.9031,0,0,3.9131,3.9124,3.9122,3.9113,3.9107,3.9103,3.9094,3.9091,3.9088,3.9075,3.9071,3.9065,3.9055,3.9052,3.9051,3.9047,3.9049,3.9046,3.9048,3.9047,3.9046,3.9047,3.9048,3.9032,3.9032,3.9032,0,0,3.9139,3.9133,3.9132,3.9126,3.9118,3.9111,3.9111,3.91,3.9096,3.9092,3.9082,3.9079,3.9069,3.9063,3.9058,3.9065,3.9058,3.9064,3.9071,3.907,3.9072,3.9073,3.9075,3.9076,3.9064,3.9064,3.9064,0,3.9146,3.9141,3.9132,3.9129,3.9125,3.9115,3.9114,3.9109,3.9099,3.9096,3.9092,3.9081,3.9074,3.907,3.9072,3.9069,3.9068,3.9065,3.9072,3.9073,3.9074,3.9076,3.9077,3.9065,3.9065,3.9065,3.9065,0,3.915,3.9146,3.9147,3.9138,3.9134,3.9132,3.9123,3.912,3.9115,3.9108,3.9104,3.9096,3.9088,3.9087,3.9081,3.9082,3.908,3.9075,3.9068,3.9076,3.9078,3.9079,3.9066,3.9066,3.9065,3.9065,0,0,3.9163,3.9151,3.9151,3.9148,3.9138,3.9135,3.9133,3.9127,3.9125,3.9118,3.9116,3.9109,3.9104,3.9099,3.9093,3.9092,3.9099,3.9087,3.9086,3.9089,3.91,3.9104,3.9105,3.9094,3.9094,3.9094,3.9101,0,3.9169,3.9165,3.9157,3.9156,3.9152,3.9144,3.9142,3.9136,3.913,3.9126,3.912,3.9115,3.9109,3.9106,3.9105,3.9098,3.9101,3.9097,3.9091,3.9091,3.9093,3.9106,3.911,3.9116,3.9102,3.9102,3.9102,0,3.9174,3.917,3.9168,3.916,3.9158,3.9157,3.9151,3.9148,3.9141,3.9137,3.9132,3.9125,3.9122,3.9117,3.9113,3.9111,3.9108,3.9104,3.9104,3.9103,3.9096,3.9104,3.9118,3.9119,3.9103,3.9103,3.9103,0,3.9184,3.9178,3.9176,3.9173,3.9163,3.9163,3.9159,3.9152,3.9149,3.9144,3.9141,3.9136,3.9133,3.9128,3.912,3.9117,3.9117,3.911,3.9113,3.9113,3.9113,3.9113,3.9126,3.9112,3.9112,3.9112,3.9112,0,3.9191,3.919,3.918,3.9179,3.9178,3.917,3.9169,3.9164,3.9158,3.9156,3.9148,3.9146,3.9135,3.9132,3.9125,3.9123,3.9122,3.9118,3.9116,3.9118,3.9119,3.9116,3.9115,3.9112,3.9112,3.9112,3.9112,0,3.9202,3.9195,3.9192,3.9184,3.9182,3.9182,3.9174,3.9173,3.9167,3.9165,3.9163,3.9154,3.915,3.9142,3.9135,3.9131,3.913,3.9127,3.9132,3.9131,3.9134,3.9134,3.9145,3.9146,3.9132,3.9132,3.9132,0,3.9206,3.9206,3.9198,3.9196,3.9192,3.9189,3.9187,3.9179,3.9176,3.9169,3.9169,3.9164,3.916,3.9154,3.9146,3.9141,3.9138,3.9142,3.9137,3.9139,3.9137,3.9137,3.9137,3.9143,3.9143,3.9143,3.9143,0,3.9215,3.9212,3.9209,3.9205,3.9202,3.9198,3.9194,3.9192,3.9184,3.9181,3.9177,3.9174,3.9168,3.9163,3.9158,3.9153,3.9147,3.9146,3.9146,3.9148,3.9151,3.9149,3.9135,3.9145,3.9145,3.9145,3.9145,3.9145,3.9222,3.9222,3.9216,3.9213,3.9209,3.9206,3.9204,3.9199,3.9196,3.9191,3.9186,3.9183,3.9177,3.9168,3.9164,3.9162,3.9158,3.9159,3.9159,3.9159,3.916,3.9152,3.916,3.916,3.916,3.916,3.916,0,3.9231,3.9227,3.9224,3.9219,3.9217,3.9212,3.9207,3.9206,3.9203,3.9198,3.9195,3.9191,3.9187,3.918,3.9175,3.9174,3.9171,3.9173,3.9172,3.9172,3.9163,3.9163,3.9175,3.9175,3.9175,3.9175,3.9175,3.9175,3.9235,3.9233,3.923,3.9227,3.9223,3.922,3.9218,3.9215,3.9211,3.9207,3.9204,3.92,3.9194,3.9189,3.9185,3.9183,3.9182,3.9185,3.9182,3.9174,3.9172,3.9171,3.9171,3.9184,3.9184,3.919,3.9191,3.9191]}]]